| time (UTC) | temp F | wind direction | speed MPH | gust MPH | rain 1hr in | rain 24hr in | rain mn in | humidity % | barometer mb |
| 20260508100050 | 41 | 120 | 5.0 | 7.0 | 0.00 | 0.00 | 0.00 | 91 | 1017.1 |
| 20260508095547 | 41 | 106 | 6.0 | 8.0 | 0.00 | 0.00 | 0.00 | 91 | 1016.9 |
| 20260508095043 | 42 | 109 | 6.0 | 7.0 | 0.00 | 0.00 | 0.00 | 90 | 1017.1 |
| 20260508094541 | 43 | 111 | 5.0 | 5.0 | 0.00 | 0.00 | 0.00 | 87 | 1016.8 |
| 20260508094037 | 44 | 84 | 4.0 | 5.0 | 0.00 | 0.00 | 0.00 | 85 | 1016.9 |
| 20260508093534 | 44 | 114 | 6.0 | 7.0 | 0.00 | 0.00 | 0.00 | 84 | 1017.1 |
| 20260508093032 | 44 | 105 | 3.0 | 4.0 | 0.00 | 0.00 | 0.00 | 83 | 1017.0 |
| 20260508092529 | 46 | 226 | 4.0 | 4.0 | 0.00 | 0.00 | 0.00 | 79 | 1016.9 |
| 20260508092028 | 48 | 107 | 5.0 | 6.0 | 0.00 | 0.00 | 0.00 | 71 | 1016.9 |
| 20260508091525 | 49 | 105 | 4.0 | 6.0 | 0.00 | 0.00 | 0.00 | 66 | 1016.8 |
| 20260508091022 | 47 | 104 | 2.0 | 3.0 | 0.00 | 0.00 | 0.00 | 70 | 1016.7 |
| 20260508090520 | 45 | 107 | 4.0 | 4.0 | 0.00 | 0.00 | 0.00 | 77 | 1016.9 |
| 20260508090016 | 46 | 101 | 6.0 | 7.0 | 0.00 | 0.00 | 0.00 | 76 | 1016.8 |
| 20260508085513 | 45 | 104 | 4.0 | 5.0 | 0.00 | 0.00 | 0.00 | 82 | 1017.1 |
| 20260508085010 | 45 | 115 | 4.0 | 6.0 | 0.00 | 0.00 | 0.00 | 80 | 1016.8 |
| 20260508084507 | 46 | 98 | 5.0 | 5.0 | 0.00 | 0.00 | 0.00 | 79 | 1016.7 |
| 20260508084004 | 47 | 102 | 5.0 | 7.0 | 0.00 | 0.00 | 0.00 | 76 | 1016.5 |
| 20260508083501 | 47 | 101 | 3.0 | 5.0 | 0.00 | 0.00 | 0.00 | 78 | 1016.6 |
| 20260508082956 | 48 | 112 | 6.0 | 8.0 | 0.00 | 0.00 | 0.00 | 69 | 1016.4 |
| 20260508082453 | 47 | 96 | 6.0 | 8.0 | 0.00 | 0.00 | 0.00 | 77 | 1016.5 |
| 20260508081951 | 48 | 99 | 5.0 | 7.0 | 0.00 | 0.00 | 0.00 | 72 | 1016.1 |
| 20260508081448 | 47 | 111 | 6.0 | 7.0 | 0.00 | 0.00 | 0.00 | 74 | 1016.4 |
| 20260508080944 | 46 | 102 | 5.0 | 8.0 | 0.00 | 0.00 | 0.00 | 79 | 1016.0 |
| 20260508080442 | 46 | 114 | 6.0 | 7.0 | 0.00 | 0.00 | 0.00 | 78 | 1016.4 |
| 20260508075939 | 47 | 111 | 5.0 | 7.0 | 0.00 | 0.00 | 0.00 | 79 | 1016.1 |
| 20260508075436 | 46 | 102 | 5.0 | 6.0 | 0.00 | 0.00 | 0.00 | 83 | 1016.1 |
| 20260508074933 | 45 | 96 | 5.0 | 7.0 | 0.00 | 0.00 | 0.00 | 86 | 1016.1 |
| 20260508074431 | 46 | 108 | 5.0 | 6.0 | 0.00 | 0.00 | 0.00 | 85 | 1016.1 |
| 20260508073927 | 47 | 108 | 4.0 | 6.0 | 0.00 | 0.00 | 0.00 | 78 | 1016.2 |
| 20260508073425 | 47 | 87 | 5.0 | 6.0 | 0.00 | 0.00 | 0.00 | 74 | 1015.9 |
| 20260508072922 | 46 | 97 | 5.0 | 5.0 | 0.00 | 0.00 | 0.00 | 81 | 1016.4 |
| 20260508072418 | 46 | 106 | 5.0 | 6.0 | 0.00 | 0.00 | 0.00 | 84 | 1016.1 |
| 20260508071916 | 47 | 132 | 3.0 | 6.0 | 0.00 | 0.00 | 0.00 | 80 | 1016.0 |
| 20260508071413 | 45 | 103 | 7.0 | 7.0 | 0.00 | 0.00 | 0.00 | 87 | 1016.1 |
| 20260508070911 | 45 | 104 | 5.0 | 6.0 | 0.00 | 0.00 | 0.00 | 87 | 1015.7 |
| 20260508070408 | 46 | 100 | 5.0 | 7.0 | 0.00 | 0.00 | 0.00 | 87 | 1015.8 |
| 20260508065906 | 46 | 118 | 7.0 | 7.0 | 0.00 | 0.00 | 0.00 | 84 | 1015.7 |
| 20260508065404 | 46 | 115 | 6.0 | 7.0 | 0.00 | 0.00 | 0.00 | 83 | 1015.8 |
| 20260508064902 | 46 | 108 | 5.0 | 7.0 | 0.00 | 0.00 | 0.00 | 88 | 1016.0 |
| 20260508064359 | 46 | 108 | 6.0 | 7.0 | 0.00 | 0.00 | 0.00 | 86 | 1016.0 |
| 20260508063857 | 46 | 104 | 4.0 | 6.0 | 0.00 | 0.00 | 0.00 | 84 | 1016.0 |
| 20260508063354 | 50 | 123 | 4.0 | 5.0 | 0.00 | 0.00 | 0.00 | 75 | 1015.8 |
| 20260508062851 | 50 | 110 | 3.0 | 6.0 | 0.00 | 0.00 | 0.00 | 73 | 1015.8 |
| 20260508062349 | 50 | 106 | 5.0 | 9.0 | 0.00 | 0.00 | 0.00 | 71 | 1015.9 |
| 20260508061846 | 48 | 86 | 4.0 | 5.0 | 0.00 | 0.00 | 0.00 | 82 | 1015.8 |
| 20260508061343 | 50 | 99 | 5.0 | 6.0 | 0.00 | 0.00 | 0.00 | 76 | 1015.9 |
| 20260508060839 | 50 | 80 | 3.0 | 5.0 | 0.00 | 0.00 | 0.00 | 72 | 1016.1 |
| 20260508060337 | 51 | 102 | 3.0 | 3.0 | 0.00 | 0.00 | 0.00 | 68 | 1015.7 |
| 20260508055832 | 49 | 105 | 4.0 | 5.0 | 0.00 | 0.00 | 0.00 | 77 | 1015.9 |
| 20260508055330 | 48 | 109 | 5.0 | 5.0 | 0.00 | 0.00 | 0.00 | 82 | 1016.2 |
| 20260508054826 | 49 | 102 | 5.0 | 6.0 | 0.00 | 0.00 | 0.00 | 78 | 1015.9 |
| 20260508054324 | 48 | 103 | 3.0 | 8.0 | 0.00 | 0.00 | 0.00 | 84 | 1015.9 |
| 20260508053820 | 49 | 91 | 4.0 | 6.0 | 0.00 | 0.00 | 0.00 | 82 | 1016.0 |
| 20260508053318 | 49 | 109 | 5.0 | 5.0 | 0.00 | 0.00 | 0.00 | 79 | 1016.0 |
| 20260508052815 | 48 | 106 | 5.0 | 8.0 | 0.00 | 0.00 | 0.00 | 80 | 1015.8 |
| 20260508052312 | 50 | 110 | 5.0 | 6.0 | 0.00 | 0.00 | 0.00 | 78 | 1015.9 |
| 20260508051808 | 50 | 120 | 5.0 | 6.0 | 0.00 | 0.00 | 0.00 | 73 | 1015.8 |
| 20260508051304 | 50 | 112 | 4.0 | 5.0 | 0.00 | 0.00 | 0.00 | 79 | 1015.7 |
| 20260508050801 | 52 | 124 | 5.0 | 6.0 | 0.00 | 0.00 | 0.00 | 68 | 1015.6 |
| 20260508050258 | 50 | 110 | 5.0 | 7.0 | 0.00 | 0.00 | 0.00 | 77 | 1015.7 |
| 20260508045753 | 49 | 114 | 6.0 | 7.0 | 0.00 | 0.00 | 0.00 | 81 | 1015.7 |
| 20260508045251 | 50 | 129 | 3.0 | 5.0 | 0.00 | 0.00 | 0.00 | 78 | 1015.5 |
| 20260508044749 | 53 | 143 | 3.0 | 3.0 | 0.00 | 0.00 | 0.00 | 66 | 1015.6 |
| 20260508044245 | 55 | 106 | 1.0 | 6.0 | 0.00 | 0.00 | 0.00 | 61 | 1015.4 |
| 20260508043741 | 54 | 136 | 3.0 | 3.0 | 0.00 | 0.00 | 0.00 | 65 | 1015.1 |
| 20260508043239 | 54 | 58 | 0.0 | 3.0 | 0.00 | 0.00 | 0.00 | 64 | 1015.3 |
| 20260508042735 | 54 | 317 | 4.0 | 6.0 | 0.00 | 0.00 | 0.00 | 63 | 1015.3 |
| 20260508042233 | 54 | 249 | 1.0 | 5.0 | 0.00 | 0.00 | 0.00 | 66 | 1015.0 |
| 20260508041729 | 53 | 91 | 3.0 | 7.0 | 0.00 | 0.00 | 0.00 | 69 | 1015.2 |
| 20260508041226 | 52 | 134 | 1.0 | 5.0 | 0.00 | 0.00 | 0.00 | 76 | 1015.3 |
| 20260508040723 | 54 | 209 | 2.0 | 4.0 | 0.00 | 0.00 | 0.00 | 68 | 1015.1 |
| 20260508040220 | 54 | 310 | 0.0 | 4.0 | 0.00 | 0.00 | 0.00 | 65 | 1015.1 |
| 20260508035717 | 55 | 326 | 2.0 | 3.0 | 0.00 | 0.08 | 0.08 | 64 | 1015.1 |
| 20260508035215 | 55 | 348 | 0.0 | 5.0 | 0.00 | 0.08 | 0.08 | 64 | 1015.1 |
| 20260508034711 | 55 | 10 | 0.0 | 3.0 | 0.00 | 0.08 | 0.08 | 64 | 1015.1 |
| 20260508034209 | 54 | 345 | 3.0 | 9.0 | 0.00 | 0.08 | 0.08 | 64 | 1015.0 |
| 20260508033705 | 55 | 328 | 2.0 | 5.0 | 0.00 | 0.08 | 0.08 | 65 | 1014.9 |
| 20260508033204 | 54 | 27 | 4.0 | 5.0 | 0.00 | 0.08 | 0.08 | 67 | 1014.9 |
| 20260508032700 | 54 | 87 | 3.0 | 3.0 | 0.00 | 0.08 | 0.08 | 68 | 1015.0 |
| 20260508032158 | 55 | 78 | 2.0 | 3.0 | 0.00 | 0.08 | 0.08 | 66 | 1014.9 |
| 20260508031654 | 55 | 21 | 3.0 | 5.0 | 0.00 | 0.08 | 0.08 | 64 | 1014.9 |
| 20260508031151 | 55 | 79 | 2.0 | 3.0 | 0.00 | 0.08 | 0.08 | 65 | 1014.9 |
| 20260508030647 | 55 | 330 | 0.0 | 5.0 | 0.00 | 0.08 | 0.08 | 66 | 1014.6 |
| 20260508030145 | 55 | 16 | 2.0 | 3.0 | 0.00 | 0.08 | 0.08 | 66 | 1014.8 |
| 20260508025641 | 54 | 71 | 3.0 | 4.0 | 0.00 | 0.08 | 0.08 | 67 | 1014.8 |
| 20260508025138 | 55 | 353 | 1.0 | 3.0 | 0.00 | 0.08 | 0.08 | 65 | 1014.6 |
| 20260508024634 | 55 | 49 | 2.0 | 7.0 | 0.00 | 0.08 | 0.08 | 65 | 1014.7 |
| 20260508024132 | 54 | 40 | 0.0 | 3.0 | 0.00 | 0.08 | 0.08 | 69 | 1014.6 |
| 20260508023627 | 54 | 84 | 2.0 | 3.0 | 0.00 | 0.08 | 0.08 | 70 | 1014.5 |
| 20260508023125 | 54 | 74 | 3.0 | 3.0 | 0.00 | 0.08 | 0.08 | 70 | 1014.3 |
| 20260508022621 | 54 | 61 | 3.0 | 4.0 | 0.00 | 0.08 | 0.08 | 69 | 1014.3 |
| 20260508022118 | 53 | 70 | 2.0 | 3.0 | 0.00 | 0.08 | 0.08 | 71 | 1014.6 |
| 20260508021613 | 53 | 97 | 2.0 | 3.0 | 0.00 | 0.08 | 0.08 | 71 | 1014.3 |
| 20260508021110 | 54 | 325 | 2.0 | 4.0 | 0.00 | 0.08 | 0.08 | 69 | 1014.3 |
| 20260508020608 | 55 | 354 | 3.0 | 5.0 | 0.00 | 0.08 | 0.08 | 68 | 1014.2 |
| 20260508020105 | 54 | 314 | 7.0 | 7.0 | 0.00 | 0.08 | 0.08 | 68 | 1014.0 |
| 20260508015603 | 54 | 345 | 3.0 | 4.0 | 0.00 | 0.08 | 0.08 | 70 | 1014.4 |
| 20260508015059 | 54 | 340 | 2.0 | 4.0 | 0.00 | 0.08 | 0.08 | 70 | 1013.9 |
| 20260508014555 | 54 | 30 | 1.0 | 7.0 | 0.00 | 0.08 | 0.08 | 70 | 1013.9 |
| 20260508014052 | 53 | 1 | 3.0 | 3.0 | 0.00 | 0.08 | 0.08 | 72 | 1013.7 |
| 20260508013548 | 54 | 359 | 2.0 | 4.0 | 0.00 | 0.08 | 0.08 | 70 | 1013.7 |
| 20260508013045 | 54 | 296 | 2.0 | 3.0 | 0.00 | 0.08 | 0.08 | 70 | 1013.4 |
| 20260508012542 | 54 | 84 | 0.0 | 4.0 | 0.00 | 0.08 | 0.08 | 69 | 1013.3 |
| 20260508012040 | 54 | 291 | 2.0 | 4.0 | 0.00 | 0.08 | 0.08 | 69 | 1013.3 |
| 20260508011538 | 54 | 56 | 5.0 | 5.0 | 0.00 | 0.08 | 0.08 | 68 | 1013.2 |
| 20260508011035 | 53 | 37 | 1.0 | 4.0 | 0.00 | 0.08 | 0.08 | 72 | 1013.1 |
| 20260508010532 | 53 | 98 | 3.0 | 4.0 | 0.00 | 0.08 | 0.08 | 73 | 1013.1 |
| 20260508010030 | 54 | 106 | 2.0 | 5.0 | 0.00 | 0.08 | 0.08 | 73 | 1013.1 |
| 20260508005526 | 54 | 111 | 3.0 | 4.0 | 0.00 | 0.08 | 0.08 | 72 | 1013.0 |
| 20260508005023 | 54 | 101 | 3.0 | 5.0 | 0.00 | 0.08 | 0.08 | 77 | 1013.0 |
| 20260508004518 | 54 | 110 | 2.0 | 5.0 | 0.00 | 0.08 | 0.08 | 74 | 1013.0 |
| 20260508004015 | 55 | 123 | 2.0 | 4.0 | 0.00 | 0.08 | 0.08 | 73 | 1013.3 |
| 20260508003512 | 56 | 65 | 2.0 | 3.0 | 0.00 | 0.08 | 0.08 | 66 | 1013.2 |
| 20260508003009 | 57 | 42 | 3.0 | 5.0 | 0.00 | 0.08 | 0.08 | 63 | 1013.1 |
| 20260508002505 | 57 | 258 | 2.0 | 4.0 | 0.00 | 0.08 | 0.08 | 63 | 1013.2 |
| 20260508002003 | 57 | 259 | 3.0 | 4.0 | 0.00 | 0.08 | 0.08 | 63 | 1013.2 |
| 20260508001458 | 57 | 344 | 2.0 | 9.0 | 0.00 | 0.08 | 0.08 | 62 | 1013.0 |
| 20260508000955 | 58 | 304 | 3.0 | 8.0 | 0.00 | 0.08 | 0.08 | 63 | 1013.0 |
| 20260508000450 | 58 | 304 | 7.0 | 7.0 | 0.00 | 0.08 | 0.08 | 62 | 1013.0 |
| 20260507235948 | 58 | 9 | 3.0 | 6.0 | 0.00 | 0.08 | 0.08 | 63 | 1013.0 |
| 20260507235445 | 58 | 314 | 4.0 | 9.0 | 0.00 | 0.08 | 0.08 | 62 | 1013.1 |
| 20260507234943 | 59 | 321 | 5.0 | 8.0 | 0.00 | 0.08 | 0.08 | 62 | 1012.9 |
| 20260507234439 | 59 | 346 | 12.0 | 15.0 | 0.00 | 0.08 | 0.08 | 60 | 1013.0 |
| 20260507233935 | 60 | 250 | 2.0 | 5.0 | 0.00 | 0.08 | 0.08 | 63 | 1012.9 |
| 20260507233432 | 61 | 347 | 2.0 | 6.0 | 0.00 | 0.08 | 0.08 | 63 | 1012.8 |
| 20260507232930 | 61 | 246 | 8.0 | 9.0 | 0.00 | 0.08 | 0.08 | 62 | 1012.8 |
| 20260507232421 | 61 | 339 | 4.0 | 9.0 | 0.00 | 0.08 | 0.08 | 63 | 1012.6 |
| 20260507231918 | 61 | 334 | 7.0 | 8.0 | 0.00 | 0.08 | 0.08 | 64 | 1012.8 |
| 20260507231414 | 60 | 322 | 4.0 | 6.0 | 0.00 | 0.08 | 0.08 | 67 | 1012.7 |
| 20260507230911 | 60 | 246 | 11.0 | 11.0 | 0.00 | 0.08 | 0.08 | 66 | 1012.5 |
| 20260507230409 | 60 | 279 | 4.0 | 8.0 | 0.00 | 0.08 | 0.08 | 67 | 1012.4 |
| 20260507225908 | 60 | 310 | 5.0 | 9.0 | 0.00 | 0.08 | 0.08 | 69 | 1012.1 |
| 20260507225405 | 60 | 318 | 5.0 | 7.0 | 0.00 | 0.08 | 0.08 | 70 | 1012.4 |
| 20260507224901 | 60 | 334 | 8.0 | 9.0 | 0.00 | 0.08 | 0.08 | 70 | 1012.2 |
| 20260507224357 | 60 | 55 | 1.0 | 4.0 | 0.00 | 0.08 | 0.08 | 73 | 1012.1 |
| 20260507223854 | 59 | 1 | 2.0 | 3.0 | 0.00 | 0.08 | 0.08 | 74 | 1012.2 |
| 20260507223350 | 59 | 269 | 2.0 | 3.0 | 0.00 | 0.08 | 0.08 | 74 | 1012.2 |
| 20260507222847 | 59 | 1 | 2.0 | 7.0 | 0.00 | 0.08 | 0.08 | 73 | 1011.9 |
| 20260507222343 | 59 | 346 | 3.0 | 5.0 | 0.00 | 0.08 | 0.08 | 73 | 1011.9 |
| 20260507221841 | 60 | 80 | 2.0 | 5.0 | 0.00 | 0.08 | 0.08 | 73 | 1011.9 |
| 20260507221337 | 60 | 310 | 1.0 | 9.0 | 0.00 | 0.08 | 0.08 | 72 | 1011.8 |
| 20260507220833 | 60 | 62 | 0.0 | 4.0 | 0.00 | 0.08 | 0.08 | 73 | 1011.7 |
| 20260507220332 | 60 | 17 | 3.0 | 11.0 | 0.00 | 0.08 | 0.08 | 71 | 1011.3 |
| 20260507215827 | 61 | 13 | 3.0 | 10.0 | 0.00 | 0.08 | 0.08 | 70 | 1011.6 |
| 20260507215325 | 60 | 348 | 3.0 | 8.0 | 0.00 | 0.08 | 0.08 | 72 | 1011.7 |
| 20260507214822 | 60 | 357 | 3.0 | 9.0 | 0.00 | 0.08 | 0.08 | 74 | 1011.7 |
| 20260507214320 | 61 | 302 | 4.0 | 7.0 | 0.00 | 0.08 | 0.08 | 74 | 1011.5 |
| 20260507213814 | 61 | 303 | 5.0 | 7.0 | 0.00 | 0.08 | 0.08 | 76 | 1011.5 |
| 20260507213312 | 61 | 88 | 3.0 | 12.0 | 0.00 | 0.08 | 0.08 | 75 | 1011.3 |
| 20260507212808 | 61 | 21 | 4.0 | 6.0 | 0.00 | 0.08 | 0.08 | 75 | 1011.3 |
| 20260507212307 | 62 | 10 | 2.0 | 4.0 | 0.00 | 0.08 | 0.08 | 76 | 1011.3 |
| 20260507211801 | 62 | 62 | 2.0 | 8.0 | 0.00 | 0.08 | 0.08 | 75 | 1010.7 |
| 20260507211257 | 62 | 37 | 5.0 | 9.0 | 0.00 | 0.08 | 0.08 | 81 | 1011.0 |
| 20260507210754 | 61 | 98 | 4.0 | 7.0 | 0.00 | 0.08 | 0.08 | 85 | 1010.9 |
| 20260507210251 | 62 | 13 | 3.0 | 5.0 | 0.00 | 0.08 | 0.08 | 83 | 1010.7 |
| 20260507205748 | 62 | 92 | 6.0 | 6.0 | 0.00 | 0.08 | 0.08 | 82 | 1010.9 |
| 20260507205245 | 64 | 80 | 7.0 | 11.0 | 0.00 | 0.08 | 0.08 | 78 | 1010.5 |
| 20260507204741 | 66 | 68 | 2.0 | 7.0 | 0.00 | 0.08 | 0.08 | 77 | 1010.6 |
| 20260507204239 | 65 | 24 | 5.0 | 10.0 | 0.00 | 0.08 | 0.08 | 74 | 1010.7 |
| 20260507203736 | 64 | 104 | 8.0 | 9.0 | 0.00 | 0.08 | 0.08 | 82 | 1010.7 |
| 20260507203233 | 62 | 91 | 3.0 | 7.0 | 0.00 | 0.08 | 0.08 | 85 | 1010.9 |
| 20260507202730 | 61 | 117 | 6.0 | 7.0 | 0.00 | 0.08 | 0.08 | 86 | 1010.7 |
| 20260507202226 | 61 | 118 | 5.0 | 8.0 | 0.00 | 0.08 | 0.08 | 87 | 1010.6 |
| 20260507201721 | 61 | 118 | 5.0 | 8.0 | 0.00 | 0.08 | 0.08 | 86 | 1010.3 |
| 20260507201218 | 62 | 111 | 5.0 | 7.0 | 0.00 | 0.08 | 0.08 | 84 | 1010.6 |
| 20260507200714 | 62 | 118 | 7.0 | 7.0 | 0.00 | 0.08 | 0.08 | 83 | 1010.7 |
| 20260507200210 | 62 | 68 | 4.0 | 6.0 | 0.00 | 0.08 | 0.08 | 84 | 1010.9 |
| 20260507195707 | 61 | 123 | 3.0 | 9.0 | 0.00 | 0.08 | 0.08 | 86 | 1010.7 |
| 20260507195204 | 61 | 121 | 3.0 | 6.0 | 0.00 | 0.08 | 0.08 | 90 | 1011.1 |
| 20260507194701 | 60 | 88 | 6.0 | 9.0 | 0.00 | 0.08 | 0.08 | 91 | 1011.1 |
| 20260507194156 | 58 | 77 | 6.0 | 11.0 | 0.00 | 0.08 | 0.08 | 94 | 1011.0 |
| 20260507193654 | 57 | 104 | 3.0 | 7.0 | 0.02 | 0.08 | 0.08 | 95 | 1011.1 |
| 20260507193151 | 57 | 125 | 5.0 | 6.0 | 0.02 | 0.08 | 0.08 | 95 | 1011.4 |
| 20260507192646 | 57 | 101 | 4.0 | 5.0 | 0.02 | 0.08 | 0.08 | 95 | 1011.3 |
| 20260507192144 | 57 | 100 | 4.0 | 5.0 | 0.02 | 0.08 | 0.08 | 95 | 1011.6 |
| 20260507191639 | 57 | 108 | 4.0 | 5.0 | 0.05 | 0.07 | 0.07 | 94 | 1011.7 |
| 20260507191136 | 57 | 79 | 3.0 | 4.0 | 0.05 | 0.07 | 0.07 | 95 | 1011.4 |
| 20260507190634 | 57 | 127 | 6.0 | 6.0 | 0.07 | 0.07 | 0.07 | 94 | 1011.4 |
| 20260507190133 | 57 | 101 | 4.0 | 5.0 | 0.07 | 0.06 | 0.06 | 94 | 1011.7 |
| 20260507185630 | 57 | 103 | 5.0 | 7.0 | 0.09 | 0.05 | 0.05 | 94 | 1011.3 |
| 20260507185126 | 57 | 318 | 3.0 | 6.0 | 0.07 | 0.04 | 0.04 | 92 | 1011.8 |
| 20260507184625 | 57 | 61 | 4.0 | 4.0 | 0.02 | 0.04 | 0.04 | 90 | 1012.0 |
| 20260507184122 | 57 | 89 | 1.0 | 4.0 | 0.00 | 0.03 | 0.03 | 89 | 1011.8 |
| 20260507183618 | 58 | 128 | 3.0 | 3.0 | 0.00 | 0.03 | 0.03 | 89 | 1011.7 |
| 20260507183115 | 58 | 44 | 4.0 | 5.0 | 0.00 | 0.03 | 0.03 | 89 | 1011.6 |
| 20260507182612 | 58 | 54 | 4.0 | 6.0 | 0.00 | 0.03 | 0.03 | 88 | 1011.6 |
| 20260507182108 | 58 | 106 | 3.0 | 7.0 | 0.00 | 0.03 | 0.03 | 88 | 1011.5 |
| 20260507181605 | 58 | 54 | 1.0 | 4.0 | 0.00 | 0.03 | 0.03 | 89 | 1011.7 |
| 20260507181101 | 58 | 332 | 2.0 | 4.0 | 0.00 | 0.03 | 0.03 | 89 | 1012.0 |
| 20260507180558 | 58 | 124 | 2.0 | 4.0 | 0.00 | 0.03 | 0.03 | 89 | 1011.6 |
| 20260507180054 | 58 | 68 | 3.0 | 9.0 | 0.00 | 0.03 | 0.03 | 89 | 1011.5 |
| 20260507175550 | 58 | 154 | 1.0 | 5.0 | 0.00 | 0.03 | 0.03 | 89 | 1011.6 |
| 20260507175048 | 58 | 16 | 7.0 | 9.0 | 0.00 | 0.03 | 0.03 | 88 | 1011.6 |
| 20260507174545 | 58 | 15 | 3.0 | 8.0 | 0.00 | 0.03 | 0.03 | 89 | 1011.4 |
| 20260507174043 | 58 | 1 | 4.0 | 6.0 | 0.00 | 0.03 | 0.03 | 89 | 1011.5 |
| 20260507173540 | 58 | 53 | 3.0 | 7.0 | 0.00 | 0.03 | 0.03 | 89 | 1011.4 |
| 20260507173037 | 59 | 29 | 3.0 | 5.0 | 0.00 | 0.03 | 0.03 | 89 | 1011.6 |
| 20260507172532 | 59 | 27 | 4.0 | 5.0 | 0.00 | 0.03 | 0.03 | 89 | 1011.7 |
| 20260507172030 | 59 | 284 | 1.0 | 5.0 | 0.00 | 0.03 | 0.03 | 89 | 1011.7 |
| 20260507171525 | 60 | 313 | 4.0 | 7.0 | 0.00 | 0.03 | 0.03 | 88 | 1011.5 |
| 20260507171023 | 60 | 46 | 3.0 | 5.0 | 0.00 | 0.03 | 0.03 | 88 | 1011.3 |
| 20260507170519 | 60 | 28 | 4.0 | 6.0 | 0.00 | 0.03 | 0.03 | 88 | 1011.7 |
| 20260507170016 | 60 | 311 | 2.0 | 6.0 | 0.00 | 0.03 | 0.03 | 88 | 1011.5 |
| 20260507165512 | 60 | 114 | 2.0 | 4.0 | 0.00 | 0.03 | 0.03 | 89 | 1011.5 |
| 20260507165009 | 60 | 321 | 2.0 | 5.0 | 0.00 | 0.03 | 0.03 | 89 | 1011.5 |
| 20260507164505 | 61 | 19 | 2.0 | 4.0 | 0.00 | 0.03 | 0.03 | 89 | 1011.6 |
| 20260507164002 | 61 | 49 | 1.0 | 3.0 | 0.00 | 0.03 | 0.03 | 89 | 1011.2 |
| 20260507163459 | 61 | 315 | 3.0 | 5.0 | 0.00 | 0.03 | 0.03 | 88 | 1011.2 |
| 20260507162956 | 61 | 342 | 4.0 | 5.0 | 0.00 | 0.03 | 0.03 | 89 | 1011.2 |
| 20260507162451 | 61 | 68 | 4.0 | 7.0 | 0.00 | 0.03 | 0.03 | 88 | 1011.3 |
| 20260507161949 | 62 | 24 | 4.0 | 6.0 | 0.00 | 0.03 | 0.03 | 88 | 1011.3 |
| 20260507161445 | 62 | 356 | 2.0 | 4.0 | 0.00 | 0.03 | 0.03 | 89 | 1011.5 |
| 20260507160942 | 62 | 12 | 2.0 | 4.0 | 0.00 | 0.03 | 0.03 | 88 | 1011.3 |
| 20260507160438 | 62 | 340 | 1.0 | 3.0 | 0.00 | 0.03 | 0.03 | 88 | 1011.4 |
| 20260507155933 | 62 | 327 | 1.0 | 3.0 | 0.00 | 0.03 | 0.03 | 88 | 1011.7 |
| 20260507155430 | 62 | 333 | 2.0 | 3.0 | 0.00 | 0.03 | 0.03 | 89 | 1011.6 |
| 20260507154927 | 62 | 73 | 3.0 | 3.0 | 0.00 | 0.03 | 0.03 | 89 | 1011.4 |
| 20260507154423 | 62 | 37 | 2.0 | 5.0 | 0.00 | 0.03 | 0.03 | 90 | 1011.6 |
| 20260507153921 | 62 | 312 | 0.0 | 4.0 | 0.00 | 0.03 | 0.03 | 90 | 1011.4 |
| 20260507153417 | 63 | 322 | 3.0 | 5.0 | 0.00 | 0.03 | 0.03 | 90 | 1011.3 |
| 20260507152914 | 63 | 53 | 3.0 | 5.0 | 0.00 | 0.03 | 0.03 | 89 | 1011.5 |
| 20260507152410 | 63 | 242 | 2.0 | 4.0 | 0.00 | 0.03 | 0.03 | 88 | 1011.4 |
| 20260507151906 | 63 | 328 | 2.0 | 4.0 | 0.00 | 0.03 | 0.03 | 89 | 1011.3 |
| 20260507151403 | 63 | 280 | 1.0 | 3.0 | 0.00 | 0.03 | 0.03 | 91 | 1011.4 |
| 20260507150900 | 63 | 359 | 3.0 | 3.0 | 0.00 | 0.03 | 0.03 | 91 | 1011.5 |
| 20260507150356 | 63 | 343 | 1.0 | 3.0 | 0.00 | 0.03 | 0.03 | 91 | 1011.5 |
| 20260507145852 | 63 | 51 | 2.0 | 5.0 | 0.00 | 0.03 | 0.03 | 92 | 1011.6 |
| 20260507145349 | 64 | 313 | 1.0 | 3.0 | 0.00 | 0.03 | 0.03 | 92 | 1011.4 |
| 20260507144846 | 64 | 5 | 1.0 | 3.0 | 0.00 | 0.03 | 0.03 | 93 | 1011.8 |
| 20260507144343 | 65 | 15 | 3.0 | 3.0 | 0.00 | 0.03 | 0.03 | 93 | 1011.6 |
| 20260507143840 | 64 | 234 | 0.0 | 2.0 | 0.00 | 0.03 | 0.03 | 95 | 1011.5 |
| 20260507143337 | 63 | 89 | 2.0 | 2.0 | 0.00 | 0.03 | 0.03 | 96 | 1011.5 |
| 20260507142833 | 63 | 106 | 2.0 | 4.0 | 0.00 | 0.03 | 0.03 | 96 | 1011.2 |
| 20260507142330 | 63 | 47 | 1.0 | 7.0 | 0.00 | 0.03 | 0.03 | 96 | 1011.4 |
| 20260507141826 | 63 | 349 | 2.0 | 4.0 | 0.00 | 0.03 | 0.03 | 98 | 1011.4 |
| 20260507141323 | 63 | 65 | 2.0 | 5.0 | 0.00 | 0.03 | 0.03 | 99 | 1011.3 |
| 20260507140820 | 62 | 36 | 2.0 | 4.0 | 0.00 | 0.03 | 0.03 | 99 | 1011.3 |
| 20260507140316 | 63 | 327 | 2.0 | 3.0 | 0.00 | 0.03 | 0.03 | 99 | 1011.2 |
| 20260507135815 | 62 | 316 | 2.0 | 3.0 | 0.00 | 0.03 | 0.03 | 99 | 1011.2 |
| 20260507135311 | 62 | 310 | 3.0 | 3.0 | 0.00 | 0.03 | 0.03 | 99 | 1011.1 |
| 20260507134808 | 62 | 106 | 1.0 | 3.0 | 0.00 | 0.03 | 0.03 | 99 | 1011.0 |
| 20260507134304 | 62 | 69 | 2.0 | 2.0 | 0.00 | 0.03 | 0.03 | 99 | 1011.0 |
| 20260507133800 | 61 | 83 | 2.0 | 4.0 | 0.00 | 0.03 | 0.03 | 99 | 1011.3 |
| 20260507133256 | 61 | 11 | 3.0 | 3.0 | 0.00 | 0.03 | 0.03 | 99 | 1011.2 |
| 20260507132754 | 61 | 57 | 2.0 | 5.0 | 0.00 | 0.03 | 0.03 | 99 | 1011.1 |
| 20260507132251 | 61 | 61 | 3.0 | 4.0 | 0.00 | 0.03 | 0.03 | 99 | 1011.0 |
| 20260507131748 | 61 | 76 | 3.0 | 5.0 | 0.00 | 0.03 | 0.03 | 99 | 1011.5 |
| 20260507131245 | 61 | 47 | 3.0 | 4.0 | 0.00 | 0.03 | 0.03 | 99 | 1011.7 |
| 20260507130741 | 61 | 36 | 3.0 | 3.0 | 0.00 | 0.03 | 0.03 | 99 | 1011.8 |
| 20260507130239 | 62 | 350 | 2.0 | 2.0 | 0.00 | 0.03 | 0.03 | 99 | 1011.9 |
| 20260507125738 | 62 | 141 | 0.0 | 3.0 | 0.00 | 0.03 | 0.03 | 99 | 1011.8 |
| 20260507125235 | 62 | 327 | 1.0 | 2.0 | 0.00 | 0.03 | 0.03 | 99 | 1012.1 |
| 20260507124731 | 62 | 239 | 1.0 | 4.0 | 0.00 | 0.03 | 0.03 | 99 | 1012.3 |
| 20260507124228 | 62 | 217 | 2.0 | 3.0 | 0.00 | 0.03 | 0.03 | 99 | 1012.1 |
| 20260507123727 | 62 | 284 | 2.0 | 2.0 | 0.00 | 0.03 | 0.03 | 99 | 1012.2 |
| 20260507123224 | 62 | 132 | 2.0 | 3.0 | 0.00 | 0.03 | 0.03 | 99 | 1011.9 |
| 20260507122719 | 62 | 157 | 0.0 | 2.0 | 0.00 | 0.03 | 0.03 | 99 | 1012.1 |
| 20260507122215 | 62 | 233 | 0.0 | 2.0 | 0.00 | 0.03 | 0.03 | 99 | 1012.2 |
| 20260507121711 | 62 | 288 | 1.0 | 3.0 | 0.00 | 0.03 | 0.03 | 99 | 1012.2 |
| 20260507121207 | 62 | 226 | 0.0 | 2.0 | 0.00 | 0.03 | 0.03 | 99 | 1012.1 |
| 20260507120703 | 62 | 213 | 1.0 | 3.0 | 0.00 | 0.03 | 0.03 | 99 | 1012.4 |
| 20260507120201 | 62 | 244 | 2.0 | 3.0 | 0.00 | 0.03 | 0.03 | 99 | 1012.3 |
| 20260507115656 | 62 | 237 | 2.0 | 3.0 | 0.00 | 0.03 | 0.03 | 99 | 1012.1 |
| 20260507115152 | 62 | 45 | 1.0 | 2.0 | 0.00 | 0.03 | 0.03 | 99 | 1012.0 |
| 20260507114648 | 62 | 226 | 0.0 | 2.0 | 0.00 | 0.03 | 0.03 | 99 | 1011.7 |
| 20260507114146 | 62 | 140 | 2.0 | 2.0 | 0.00 | 0.03 | 0.03 | 99 | 1011.6 |
| 20260507113643 | 62 | 96 | 2.0 | 3.0 | 0.00 | 0.03 | 0.03 | 99 | 1011.4 |
| 20260507113140 | 62 | 140 | 0.0 | 3.0 | 0.00 | 0.03 | 0.03 | 99 | 1011.8 |
| 20260507112638 | 62 | 179 | 0.0 | 2.0 | 0.00 | 0.03 | 0.03 | 99 | 1011.7 |
| 20260507112134 | 62 | 111 | 0.0 | 2.0 | 0.00 | 0.03 | 0.03 | 99 | 1011.5 |
| 20260507111631 | 62 | 98 | 2.0 | 4.0 | 0.00 | 0.03 | 0.03 | 99 | 1011.4 |
| 20260507111128 | 62 | 125 | 3.0 | 5.0 | 0.00 | 0.03 | 0.03 | 99 | 1011.5 |
| 20260507110624 | 62 | 115 | 3.0 | 3.0 | 0.00 | 0.03 | 0.03 | 99 | 1011.3 |
| 20260507110121 | 62 | 131 | 0.0 | 3.0 | 0.00 | 0.03 | 0.03 | 99 | 1011.4 |
| 20260507105618 | 62 | 141 | 2.0 | 3.0 | 0.00 | 0.03 | 0.03 | 99 | 1011.4 |
| 20260507105114 | 62 | 127 | 0.0 | 2.0 | 0.00 | 0.03 | 0.03 | 99 | 1011.5 |
| 20260507104612 | 62 | 166 | 1.0 | 2.0 | 0.00 | 0.03 | 0.03 | 99 | 1011.6 |
| 20260507104108 | 62 | 122 | 0.0 | 2.0 | 0.00 | 0.03 | 0.03 | 99 | 1011.4 |
| 20260507103604 | 62 | 85 | 0.0 | 1.0 | 0.00 | 0.03 | 0.03 | 99 | 1011.6 |
| 20260507103101 | 62 | 137 | 2.0 | 5.0 | 0.00 | 0.03 | 0.03 | 99 | 1011.0 |
| 20260507102557 | 62 | 116 | 1.0 | 2.0 | 0.00 | 0.03 | 0.03 | 99 | 1011.6 |
| 20260507102053 | 62 | 30 | 1.0 | 2.0 | 0.02 | 0.03 | 0.03 | 99 | 1011.6 |
| 20260507101548 | 62 | 145 | 1.0 | 2.0 | 0.02 | 0.03 | 0.03 | 99 | 1011.5 |
| 20260507101045 | 62 | 126 | 2.0 | 2.0 | 0.00 | 0.03 | 0.03 | 99 | 1011.4 |
| 20260507100543 | 62 | 118 | 2.0 | 3.0 | 0.00 | 0.03 | 0.03 | 99 | 1011.2 |